This is the latest recevied weather packets stored in our database for station/object EA1HTW-13. If no packets are shown the sender has not sent any weather packets the latest 10 day(s).
| Time | Temp. | Humidity | Pressure | Rain* | Wind** | Luminosity | Snow |
|---|---|---|---|---|---|---|---|
| 1777925295 | 15° C | 63% | 1010.3 hPa | 0 mm | - | - | - |
| 1777924755 | 15° C | 62% | 1010.3 hPa | 0 mm | - | - | - |
| 1777924215 | 15° C | 61% | 1010.2 hPa | 0 mm | - | - | - |
| 1777923675 | 15° C | 60% | 1010 hPa | 0 mm | - | - | - |
| 1777923135 | 15.56° C | 60% | 1010 hPa | 0 mm | - | - | - |
| 1777922595 | 15.56° C | 60% | 1010 hPa | 0 mm | - | - | - |
| 1777922056 | 15.56° C | 60% | 1009.9 hPa | 0 mm | - | - | - |
| 1777921515 | 15.56° C | 60% | 1009.9 hPa | 0 mm | - | - | - |
| 1777920975 | 16.11° C | 61% | 1010 hPa | 0 mm | - | - | - |
| 1777920434 | 16.11° C | 61% | 1009.9 hPa | 0 mm | - | - | - |
| 1777919895 | 16.11° C | 61% | 1009.7 hPa | 0 mm | - | - | - |
| 1777919356 | 16.11° C | 61% | 1009.6 hPa | 0 mm | - | - | - |
| 1777918814 | 16.11° C | 62% | 1009.6 hPa | 0 mm | - | - | - |
| 1777918276 | 16.11° C | 62% | 1009.5 hPa | 0 mm | - | - | - |
| 1777917735 | 16.11° C | 61% | 1009.6 hPa | 0 mm | - | - | - |
| 1777917194 | 16.67° C | 60% | 1009.8 hPa | 0 mm | - | - | - |
| 1777916655 | 16.67° C | 59% | 1009.7 hPa | 0 mm | - | - | - |
| 1777916114 | 17.22° C | 59% | 1009.7 hPa | 0 mm | - | - | - |
| 1777915574 | 17.78° C | 53% | 1009.7 hPa | 0 mm | - | - | - |
| 1777915035 | 17.78° C | 52% | 1009.6 hPa | 0 mm | - | - | - |
| 1777914494 | 17.78° C | 51% | 1009.5 hPa | 0 mm | - | - | - |
| 1777913954 | 18.33° C | 51% | 1009.7 hPa | 0 mm | - | - | - |
| 1777913415 | 18.89° C | 50% | 1009.5 hPa | 0 mm | - | - | - |
| 1777912874 | 19.44° C | 47% | 1009.6 hPa | 0 mm | - | - | - |
| 1777912334 | 20.56° C | 45% | 1009.5 hPa | 0 mm | - | - | - |
* Rain latest hour (hover to see other rain measurements)
** Current wind speed in m/s (hover to see current wind gust speed)